When you browse on this site, cookies collect data to enhance your experience and personalize the content and advertising you see.
Visit our Privacy Policy to learn more. By continuing to use the site, you agree to this use of cookies and data.
  • In Portugal
  • List of Countries
  • For 7 days
  • Water Temperature
  • Satellite Maps
  • Weather Map
  • Weather Widgets
  • user-avatar
    Login

    Hourly Weather Sari

    Today, 16 July, Tuesday

    Time Temperature Precipitation Wind Pressure Humidity
    00:00 +27°C° 0 mm 1 mps 749 mmHg 79%
    01:00 +27°C° 0 mm 1 mps 749 mmHg 79%
    02:00 +26°C° 0 mm 1 mps 749 mmHg 81%
    03:00 +26°C° 0 mm 1 mps 749 mmHg 83%
    04:00 +25°C° 0 mm 1 mps 749 mmHg 87%
    05:00 +26°C° 0 mm 1 mps 749 mmHg 82%
    06:00 +27°C° 0 mm 1 mps 749 mmHg 78%
    07:00 +28°C° 0 mm 1 mps 749 mmHg 73%
    08:00 +29°C° 0 mm 2 mps 749 mmHg 68%
    09:00 +31°C° 0 mm 3 mps 749 mmHg 64%
    10:00 +33°C° 0 mm 3 mps 749 mmHg 59%
    11:00 +34°C° 0 mm 4 mps 749 mmHg 57%
    12:00 +34°C° 0 mm 4 mps 749 mmHg 55%
    13:00 +35°C° 0 mm 5 mps 749 mmHg 54%
    14:00 +35°C° 0 mm 4 mps 749 mmHg 54%
    15:00 +35°C° 0 mm 4 mps 748 mmHg 54%
    16:00 +35°C° 0 mm 4 mps 748 mmHg 54%
    17:00 +33°C° 0 mm 4 mps 748 mmHg 59%
    18:00 +31°C° 0 mm 3 mps 748 mmHg 64%
    19:00 +30°C° 0 mm 3 mps 748 mmHg 69%
    20:00 +29°C° 0 mm 2 mps 748 mmHg 74%
    21:00 +27°C° 0 mm 1 mps 749 mmHg 79%
    22:00 +26°C° 0 mm 1 mps 749 mmHg 85%
    23:00 +26°C° 0 mm 1 mps 749 mmHg 85%

    Tomorrow, 17 July, Wednesday

    Time Temperature Precipitation Wind Pressure Humidity
    00:00 +26°C° 0 mm 1 mps 749 mmHg 85%
    01:00 +26°C° 0 mm 1 mps 749 mmHg 86%
    02:00 +26°C° 0 mm 1 mps 749 mmHg 86%
    03:00 +26°C° 0 mm 1 mps 749 mmHg 87%
    04:00 +25°C° 0 mm 1 mps 749 mmHg 88%
    05:00 +26°C° 0 mm 1 mps 750 mmHg 85%
    06:00 +27°C° 0 mm 2 mps 750 mmHg 82%
    07:00 +27°C° 0 mm 2 mps 750 mmHg 78%
    08:00 +29°C° 0 mm 2 mps 751 mmHg 70%
    09:00 +31°C° 0 mm 3 mps 751 mmHg 62%
    10:00 +34°C° 0 mm 3 mps 751 mmHg 53%
    11:00 +35°C° 0 mm 4 mps 751 mmHg 51%
    12:00 +36°C° 0 mm 4 mps 750 mmHg 48%
    13:00 +36°C° 0 mm 5 mps 750 mmHg 46%
    14:00 +36°C° 0 mm 5 mps 750 mmHg 48%
    15:00 +35°C° 0 mm 5 mps 750 mmHg 49%
    16:00 +35°C° 0 mm 4 mps 749 mmHg 51%
    17:00 +34°C° 0 mm 4 mps 749 mmHg 56%
    18:00 +32°C° 0 mm 4 mps 749 mmHg 61%
    19:00 +30°C° 0 mm 3 mps 749 mmHg 65%
    20:00 +29°C° 0 mm 2 mps 750 mmHg 73%
    21:00 +28°C° 0 mm 2 mps 750 mmHg 80%
    22:00 +26°C° 0 mm 1 mps 750 mmHg 87%
    23:00 +26°C° 0 mm 1 mps 750 mmHg 87%

    Day after tomorrow, 18 July, Thursday

    Time Temperature Precipitation Wind Pressure Humidity
    00:00 +26°C° 0 mm 1 mps 750 mmHg 88%
    01:00 +26°C° 0 mm 2 mps 750 mmHg 88%
    02:00 +26°C° 0 mm 2 mps 750 mmHg 87%
    03:00 +26°C° 0 mm 2 mps 751 mmHg 86%
    04:00 +26°C° 0 mm 2 mps 751 mmHg 84%
    05:00 +26°C° 0 mm 2 mps 751 mmHg 82%
    06:00 +27°C° 0 mm 2 mps 751 mmHg 80%
    07:00 +27°C° 0 mm 2 mps 751 mmHg 78%
    08:00 +29°C° 0 mm 2 mps 751 mmHg 69%
    09:00 +31°C° 0 mm 3 mps 751 mmHg 61%
    10:00 +34°C° 0 mm 3 mps 751 mmHg 52%
    11:00 +35°C° 0 mm 4 mps 751 mmHg 50%
    12:00 +36°C° 0 mm 4 mps 751 mmHg 48%
    13:00 +37°C° 0 mm 5 mps 750 mmHg 46%
    14:00 +36°C° 0 mm 4 mps 750 mmHg 49%
    15:00 +35°C° 0 mm 4 mps 750 mmHg 51%
    16:00 +35°C° 0 mm 4 mps 749 mmHg 53%
    17:00 +34°C° 0 mm 3 mps 749 mmHg 57%
    18:00 +33°C° 0 mm 3 mps 749 mmHg 62%
    19:00 +30°C° 0 mm 2 mps 749 mmHg 66%
    20:00 +29°C° 0 mm 2 mps 749 mmHg 72%
    21:00 +28°C° 0 mm 1 mps 749 mmHg 78%
    22:00 +24°C° 0 mm 0 mps 749 mmHg 85%
    23:00 +24°C° 0 mm 0 mps 750 mmHg 86%

    19 July, Friday

    Time Temperature Precipitation Wind Pressure Humidity
    00:00 +24°C° 0 mm 0 mps 750 mmHg 87%
    01:00 +26°C° 0 mm 1 mps 750 mmHg 88%
    02:00 +25°C° 0 mm 1 mps 750 mmHg 88%
    03:00 +25°C° 0 mm 1 mps 750 mmHg 89%
    04:00 +25°C° 0 mm 1 mps 751 mmHg 90%
    05:00 +26°C° 0 mm 1 mps 751 mmHg 86%
    06:00 +26°C° 0 mm 1 mps 751 mmHg 83%
    07:00 +27°C° 0 mm 1 mps 751 mmHg 79%
    08:00 +29°C° 0 mm 2 mps 752 mmHg 70%
    09:00 +32°C° 0 mm 2 mps 752 mmHg 61%
    10:00 +35°C° 0 mm 3 mps 752 mmHg 51%
    11:00 +36°C° 0 mm 4 mps 752 mmHg 50%
    12:00 +36°C° 0 mm 4 mps 752 mmHg 48%
    13:00 +37°C° 0 mm 5 mps 752 mmHg 46%
    14:00 +37°C° 0 mm 5 mps 751 mmHg 47%
    15:00 +36°C° 0 mm 4 mps 751 mmHg 48%
    16:00 +36°C° 0 mm 4 mps 751 mmHg 50%
    17:00 +34°C° 0 mm 4 mps 751 mmHg 54%
    18:00 +33°C° 0 mm 3 mps 751 mmHg 58%
    19:00 +31°C° 0 mm 3 mps 751 mmHg 62%
    20:00 +29°C° 0 mm 2 mps 752 mmHg 68%
    21:00 +28°C° 0 mm 1 mps 752 mmHg 74%
    22:00 +27°C° 0 mm 1 mps 752 mmHg 80%
    23:00 +26°C° 0 mm 1 mps 753 mmHg 81%

    20 July, Saturday

    Time Temperature Precipitation Wind Pressure Humidity
    00:00 +26°C° 0 mm 1 mps 753 mmHg 82%
    01:00 +26°C° 0 mm 2 mps 753 mmHg 83%
    02:00 +26°C° 0 mm 2 mps 754 mmHg 83%
    03:00 +26°C° 0 mm 2 mps 754 mmHg 84%
    04:00 +25°C° 0 mm 2 mps 754 mmHg 85%
    05:00 +26°C° 0 mm 2 mps 755 mmHg 79%
    06:00 +27°C° 0 mm 3 mps 755 mmHg 73%
    07:00 +28°C° 0 mm 3 mps 756 mmHg 67%
    08:00 +30°C° 0 mm 3 mps 756 mmHg 60%
    09:00 +33°C° 0 mm 3 mps 756 mmHg 52%
    10:00 +35°C° 0 mm 4 mps 756 mmHg 45%
    11:00 +36°C° 0 mm 4 mps 756 mmHg 42%
    12:00 +37°C° 0 mm 5 mps 756 mmHg 38%
    13:00 +39°C° 0 mm 6 mps 756 mmHg 35%
    14:00 +39°C° 0 mm 5 mps 756 mmHg 36%
    15:00 +37°C° 0 mm 5 mps 756 mmHg 37%
    16:00 +37°C° 0 mm 5 mps 755 mmHg 38%
    17:00 +36°C° 0 mm 4 mps 755 mmHg 41%
    18:00 +34°C° 0 mm 4 mps 755 mmHg 44%
    19:00 +33°C° 0 mm 3 mps 755 mmHg 47%
    20:00 +31°C° 0 mm 2 mps 756 mmHg 55%
    21:00 +29°C° 0 mm 2 mps 756 mmHg 62%
    22:00 +27°C° 0 mm 1 mps 756 mmHg 69%
    23:00 +27°C° 0 mm 1 mps 756 mmHg 71%

    21 July, Sunday

    Time Temperature Precipitation Wind Pressure Humidity
    00:00 +26°C° 0 mm 1 mps 756 mmHg 73%
    01:00 +26°C° 0 mm 1 mps 756 mmHg 75%
    02:00 +26°C° 0 mm 1 mps 756 mmHg 74%
    03:00 +26°C° 0 mm 2 mps 756 mmHg 74%
    04:00 +26°C° 0 mm 2 mps 756 mmHg 74%
    05:00 +27°C° 0 mm 2 mps 756 mmHg 69%
    06:00 +28°C° 0 mm 2 mps 756 mmHg 64%
    07:00 +29°C° 0 mm 2 mps 756 mmHg 59%
    08:00 +31°C° 0 mm 2 mps 756 mmHg 54%
    09:00 +34°C° 0 mm 3 mps 756 mmHg 48%
    10:00 +35°C° 0 mm 4 mps 756 mmHg 43%
    11:00 +36°C° 0 mm 4 mps 756 mmHg 41%
    12:00 +37°C° 0 mm 4 mps 755 mmHg 38%
    13:00 +38°C° 0 mm 4 mps 755 mmHg 36%
    14:00 +38°C° 0 mm 4 mps 755 mmHg 37%
    15:00 +38°C° 0 mm 4 mps 754 mmHg 37%
    16:00 +38°C° 0 mm 4 mps 754 mmHg 38%
    17:00 +36°C° 0 mm 3 mps 754 mmHg 41%
    18:00 +35°C° 0 mm 3 mps 754 mmHg 45%
    19:00 +34°C° 0 mm 2 mps 754 mmHg 48%
    20:00 +31°C° 0 mm 1 mps 754 mmHg 54%
    21:00 +29°C° 0 mm 1 mps 754 mmHg 59%
    22:00 +28°C° 0 mm 1 mps 754 mmHg 64%
    23:00 +26°C° 0 mm 0 mps 754 mmHg 65%
    Show more